Regional Weather Roundup
Issued by NWS

Home | Current Version | Previous Version | Text Only | Print | Product List | Glossary Off
Versions: 1 2 3 4 5 6 7 8 9 10 11 12 13 14 15 16 17 18 19 20 21 22 23 24 25 26 27 28 29 30 31 32 33 34 35 36 37 38 39 40 41 42 43 44 45 46 47 48 49 50

000
ASUS45 KPSR 072110
RWRAZ

ARIZONA HOURLY REGIONAL WEATHER ROUNDUP
NATIONAL WEATHER SERVICE PHOENIX AZ
200 PM MST TUE JUL 07 2015

NOTE: FAIR INDICATES FEW OR NO CLOUDS BELOW 12,000 FEET WITH NO
SIGNIFICANT WEATHER AND/OR OBSTRUCTIONS TO VISIBILITY.

AZZ001>003-036-072200-
NORTHWEST ARIZONA

CITY           SKY/WX    TMP DP  RH WIND       PRES   REMARKS
BULLHEAD CITY  MOSUNNY  104  54  18 SW12      29.75F HX 102
KINGMAN        MOSUNNY   96  41  15 NW10G21   29.97F
$$

AZZ004>008-015-016-018-072200-
NORTH CENTRAL ARIZONA

CITY           SKY/WX    TMP DP  RH WIND       PRES   REMARKS
GRAND CANYON   PTSUNNY   73  44  35 VRB7G17   30.22F
WILLIAMS       PTSUNNY   72  48  43 W14G21    30.31R
PRESCOTT       PTSUNNY   80  56  43 SE13G20   30.11F
FLAGSTAFF      MOSUNNY   74  48  39 SW13      30.23F
PAYSON         CLOUDY    79  43  27 N15G26    30.15R
PAGE           PTSUNNY   79  54  41 W8G20     30.04F
$$

AZZ009>014-017-072200-
NORTHEAST ARIZONA

CITY           SKY/WX    TMP DP  RH WIND       PRES   REMARKS
WINSLOW        PTSUNNY   90  47  22 W12G21    30.06F
SAINT JOHNS    MOSUNNY   85  43  22 NW8       30.10F
SHOW LOW       PTSUNNY   77  43  29 W8        30.20F
$$

AZZ023-072200-
GREATER PHOENIX AREA

CITY           SKY/WX    TMP DP  RH WIND       PRES   REMARKS
PHOENIX        MOSUNNY  104  56  20 SW10      29.79F HX 103
BUCKEYE        SUNNY    104  50  16 S10       29.79F HX 101
GLENDALE       MOSUNNY  102  55  21 SW5       29.81F HX 101
LUKE AFB       SUNNY    102  54  19 S13       29.78F HX 100
DEER VALLEY    SUNNY    101  53  20 SW7G17    29.82F
SCOTTSDALE     SUNNY    101  54  20 W7        29.83F
MESA-FALCON    MOSUNNY  102  55  21 SW14      29.82F HX 101
MESA-GATEWAY   MOSUNNY  100  57  23 SW9       29.85F
CHANDLER       MOSUNNY  102  57  22 W9        29.81F HX 101
$$

AZZ027-028-072200-
SOUTHWEST MARICOPA COUNTY AND PINAL COUNTY

CITY           SKY/WX    TMP DP  RH WIND       PRES   REMARKS
CASA GRANDE    SUNNY    102  55  21 CALM      29.82F HX 101
GILA BEND      MOSUNNY  104  50  16 SW16      29.76F HX 101
$$

AZZ503-504-507>509-072200-
SOUTHEAST ARIZONA

CITY           SKY/WX    TMP DP  RH WIND       PRES   REMARKS
TUCSON         PTSUNNY   99  57  24 N7        29.94F
DAVIS-MONTHAN  SUNNY     95  59  30 VRB5      29.92F
RYAN FIELD     SUNNY     99  57  25 NW8       29.92F
NOGALES        PTSUNNY   90  58  33 VRB6      30.03F
SIERRA VISTA   PTSUNNY   81  53  38 VRB1      30.11F
DOUGLAS        PTSUNNY   87  57  35 VRB6      30.04F
SAFFORD        MOSUNNY   94  53  25 SW13      29.92F
$$

AZZ020-021-025-026-031-072200-
SOUTHWEST ARIZONA

CITY           SKY/WX    TMP DP  RH WIND       PRES   REMARKS
YUMA           MOSUNNY  107  48  14 S15G22    29.74F HX 103
$$

CAZ031-033-041-043-047-048-061-072200-
SOUTHERN CALIFORNIA

CITY           SKY/WX    TMP DP  RH WIND       PRES   REMARKS
DOWNTOWN L.A.  MOSUNNY   75  61  61 VRB3      29.93F
L.A. AIRPORT   MOSUNNY   70  61  73 W13       29.95F
SAN DIEGO      PTSUNNY   70  59  68 CALM      29.96F
BURBANK        SUNNY     77  60  55 SW8       29.92F
ONTARIO        MOSUNNY   82  57  42 W9        29.92F
RIVERSIDE      SUNNY     83  58  42 MISG      29.92F
PALM SPRINGS   MOSUNNY  105  52  17 NW12G21   29.77F HX 103
EL CENTRO NAS  MOSUNNY  106  44  12 SE9       29.74F HX 101
IMPERIAL       SUNNY    106  41  11 W7        29.72F HX 100
BLYTHE         SUNNY    107  49  14 S15       29.74F HX 104
NEEDLES        SUNNY    108  48  13 SW13G21   29.75F HX 104
$$

NVZ020-UTZ003-072200-
SOUTHERN NEVADA-UTAH

CITY           SKY/WX    TMP DP  RH WIND       PRES   REMARKS
LAS VEGAS      MOSUNNY   96  50  20 VRB3      29.83F
SALT LAKE CITY CLOUDY    83  52  34 W12       29.98F
$$

NMZ009-TXZ055-072200-
NEW MEXICO-WEST TEXAS

CITY           SKY/WX    TMP DP  RH WIND       PRES   REMARKS
ALBUQUERQUE    PTSUNNY   78  54  43 SE8       30.14F
EL PASO        MOSUNNY   92  58  31 VRB6      29.99F
$$


........................KEY........................
SKY/WX - SKY CONDITION/WEATHER
TMP    - TEMPERATURE IN FAHRENHEIT
DP     - DEW POINT IN FAHRENHEIT
RH     - RELATIVE HUMIDITY IN PERCENT
WIND   - DIRECTION AND SPEED IN MILES PER HOUR (MPH)
VRB    - VARIABLE WIND DIRECTION
PRES   - MEAN SEA LEVEL PRESSURE IN INCHES OF MERCURY
         F - FALLING PRESSURE   R - RISING PRESSURE
         S - STEADY PRESSURE
VSB    - VISIBILITY IN MILES
HX     - HEAT INDEX IN FAHRENHEIT
WCI    - WIND CHILL INDEX IN FAHRENHEIT
TC     - TEMPERATURE IN CELSIUS WHICH IS ALSO KNOWN AS
         TEMPERATURE IN CENTIGRADE
AFB    - AIR FORCE BASE
         LUKE AFB IS LUKE AIR FORCE BASE
         DAVIS-MONTHAN IS DAVIS-MONTHAN AIR FORCE BASE
NAS    - NAVAL AIR STATION
         EL CENTRO NAS IS EL CENTRO NAVAL AIR STATION
N/A    - NOT AVAILABLE



USA.gov is the U.S. government's official web portal to all federal, state and local government web resources and services.